Preview of NWS' New Version of Forecast
This preview is not operational and should not be used for support decisions.

Regional Weather Roundup (RWR)

Issued by National Weather Service (NWS)

                            
000
ASUS45 KABQ 230401
RWRNM 
NEW MEXICO REGIONAL WEATHER ROUNDUP
NATIONAL WEATHER SERVICE ALBUQUERQUE NM
1000 PM MDT THU AUG 22 2019

NOTE: "FAIR" MEANS FEW OR NO CLOUDS BELOW 12,000 FEET AGL WITH NO
       SIGNIFICANT WEATHER OR OBSTRUCTIONS TO VISION.

      THIS PRODUCT IS RELEASED AS TWO VERSIONS.  ONE VERSION NEAR
      THE TOP OF THE HOUR CONTAINING PRELIMINARY DATA FROM ALBUQUERQUE
      AND OTHER STATIONS.  A FINAL VERSION WITH ADDITIONAL DATA IS 
      ISSUED ABOUT 10 MINUTES AFTER THE HOUR.
 
NMZ501-503-504-510>518-230500-
NORTHWEST PLATEAU/NORTHCENTRAL MOUNTAINS
  
CITY           SKY/WX    TMP DP  RH WIND       PRES   REMARKS
FARMINGTON     FAIR      75  18  11 N6        30.01R                  
LOS ALAMOS       N/A     72  37  27 NW12      30.19F                  
SANTA FE       FAIR      75  42  30 SE14G28   30.11R                  
TAOS           FAIR      63  43  48 VRB3      30.22R                  
ANGEL FIRE     FAIR      47  45  91 W5        30.35R                  

$$
NMZ402-403-502-505>509-230500-
WESTCENTRAL MOUNTAINS/SOUTHWEST MOUNTAINS
  
CITY           SKY/WX    TMP DP  RH WIND       PRES   REMARKS
GALLUP         FAIR      65  22  19 CALM      30.12R                  
GRANTS         FAIR      71  28  20 CALM      30.14S                  
SILVER CITY    CLOUDY    78  46  32 N14G20    30.09F                  

$$
NMZ407-409-411-412-230500-
SOUTHERN DESERTS
  
CITY           SKY/WX    TMP DP  RH WIND       PRES   REMARKS
DEMING         FAIR      81  55  40 W5        29.98S                  
LAS CRUCES     FAIR      84  52  33 S6        30.00R                  
HOLLOMAN AFB   FAIR      85  51  30 SE8       29.99R                  
ALAMOGORDO     FAIR      77  48  36 S7        29.98S                  
T OR C         FAIR      81  46  29 NW5       30.01S                  

$$
NMZ519>523-230500-
CENTRAL VALLEYS/CENTRAL HIGHLANDS
  
CITY           SKY/WX    TMP DP  RH WIND       PRES   REMARKS
ALBUQUERQUE    MOCLDY    81  42  25 SE9       30.03R                  
CLINES CORNERS LGT RAIN  67  50  54 NE13      30.26R                  
BELEN          FAIR      81  41  24 S13       30.02S                  
SOCORRO        FAIR      82  46  28 SW12      30.00S                  

$$
NMZ524>526-539-540-230500-
SOUTHCENTRAL MOUNTAINS
  
CITY           SKY/WX    TMP DP  RH WIND       PRES   REMARKS
RUIDOSO        FAIR      64  54  68 SE7       30.21F                  

$$
NMZ527>531-230500-
NORTHEAST HIGHLANDS/NORTHEAST PLAINS
  
CITY           SKY/WX    TMP DP  RH WIND       PRES   REMARKS
LAS VEGAS      FAIR      60  47  61 N5        30.23R                  
RATON          FAIR      62  44  51 NE7       30.15R                  
CLAYTON        FAIR      70  53  54 SE7       30.04R                  

$$
NMZ532>537-230500-
EASTCENTRAL PLAINS
  
CITY           SKY/WX    TMP DP  RH WIND       PRES   REMARKS
SANTA ROSA     FAIR      69  56  64 E5        30.04F                  
TUCUMCARI      FAIR      74  55  51 S14       29.96F                  
CANNON AFB     TSTM      64  59  85 N21G36    30.12R                  
CLOVIS AIRPORT CLOUDY    72  57  59 NW18G25   30.13R                  

$$
NMZ028-029-538-230500-
SOUTHEAST PLAINS
  
CITY           SKY/WX    TMP DP  RH WIND       PRES   REMARKS
ROSWELL        FAIR      83  53  35 S6        29.96R                  
ARTESIA        FAIR      82  61  47 SE16G23   29.98R                  
CARLSBAD       FAIR      79  61  53 S9        29.95R                  
HOBBS          FAIR      73  59  60 S7        30.00S                  


$$